Regional Weather Roundup
Issued by NWS Pendleton, OR

Home | Current Version | Previous Version | Text Only | Print | Product List | Glossary On
Versions: 1 2 3 4 5 6 7 8 9 10 11 12 13 14 15 16 17 18 19 20 21 22 23 24 25 26 27 28 29 30 31 32 33 34 35 36 37 38 39 40 41 42 43 44 45 46 47 48 49 50
000
ASUS46 KPDT 251825
RWRPDT
PENDLETON REGIONAL WEATHER ROUNDUP
NATIONAL WEATHER SERVICE PENDLETON OREGON
1100 AM PDT TUE APR 25 2017

NOTE: FAIR INDICATES FEW OR NO CLOUDS BELOW 12,000 FEET WITH NO
SIGNIFICANT WEATHER AND/OR OBSTRUCTIONS TO VISIBILITY.

# INDICATES UNOFFICIAL STATION AND DATA

WAZ520-251910-
EAST SLOPES OF WASHINGTON CASCADES

CITY            SKY/WX      TMP DP  RH  WIND    PRES   REMARKS
#CLE ELUM HS    N/A         48  33  56  W5      29.85S
#CLE ELUM LAKE  N/A         48  36  63  W1      29.88R
#GLENWOOD       N/A         47  38  71  S5      29.96R
#MANASTASH CYN  N/A         35  35  100 CALM    29.85R
#NELSON 3SW     N/A         47  35  63  CALM    30.09F
#NILE           N/A         49  35  58  W5      29.18R
#TEANAWAY 4NE   N/A         51  40  66  W3      N/A
#TROUT LAKE 1NE N/A         45  37  73  SW5     29.98R
#TROUT LAKE 1E  N/A         46  38  73  CALM    29.97R
$$

WAZ521-251910-
SIMCOE HIGHLANDS

CITY            SKY/WX      TMP DP  RH  WIND    PRES   REMARKS
#BICKLETON HS   N/A         49  35  58  SW14    29.90R WCI 44
#CENTERVILLE 1SWN/A         47  37  68  W10     29.92R
#GOLDENDALE 1NE N/A         48  27  44  SW3     N/A
#GOLDENDALE 4W  N/A         50  16  25  W10     29.98R
#GOODNOE HILLS  N/A         51  38  61  W17     N/A
#LYLE 6NE       N/A         47  39  74  SW7     29.94R
#PITT 4SE       N/A         44  38  79  SW7     29.99R
$$

WAZ026-251910-
KITTITAS VALLEY

CITY            SKY/WX      TMP DP  RH  WIND    PRES   REMARKS
ELLENSBURG AP   PTCLDY      55  36  49  NW10    29.88R
6HR MIN TEMP:   43; 6HR MAX TEMP:   56;

#ELLENSBURG CWU N/A         54  35  48  NW6     29.82R
#ELLENSBURG 3NE N/A         52  37  56  N5      27.96R
#ELLENSBURG 1E  N/A         53  N/A N/A CALM    N/A
#ELLENSBURG 13S N/A         56  34  43  W3      N/A
#KITTITAS 4N    N/A         54  37  52  W5      29.90R
#KITTITAS 3S    N/A         53  38  57  CALM    29.87R
#THORP 6N       N/A         49  37  63  N7      29.91R
$$

WAZ027-251910-
YAKIMA VALLEY

CITY            SKY/WX      TMP DP  RH  WIND    PRES   REMARKS
SUNNYSIDE AP    PTCLDY      55  36  49  NE3     29.91S
YAKIMA AIRPORT  MOCLDY      59  38  45  VRB5    29.90R
6HR MIN TEMP:   41; 6HR MAX TEMP:   59;

YAKIMA-VAGABOND SUNNY       54  35  48  S5      29.87S
6HR MIN TEMP:   38; 6HR MAX TEMP:   54;

#DONALD 2NE     N/A         61   4  10  SW3     28.74S
#GRANDVIEW      N/A         56  36  47  SW2     29.92S
#MABTON         N/A         55  40  57  CALM    29.89F
#MOXEE 2E       N/A         61   0   8  CALM    29.82S
#NACHES 2SW     N/A         55  39  55  W1      29.90S
#TERRACE HTS    N/A         57  37  47  S1      29.87S
#TOPPENISH      N/A         57  39  51  CALM    29.82S
#WEST VALLEY    N/A         54  36  50  CALM    29.88R
#W YAKIMA       N/A         54  36  50  NE2     29.90R
#WHITE SWAN 5E  N/A         59  39  47  W2      29.90S
#WILEY CITY 3W  N/A         55  32  41  CALM    29.86R
$$

WAZ028-251910-
LOWER COLUMBIA BASIN...WASHINGTON

CITY            SKY/WX      TMP DP  RH  WIND    PRES   REMARKS
HANFORD         MOCLDY      60  34  37  SW7     29.88F
6HR MIN TEMP:   41; 6HR MAX TEMP:   62;

PASCO           PTCLDY      60  38  44  SW13    29.92F
6HR MIN TEMP:   45; 6HR MAX TEMP:   60;

PROSSER AWOS    N/A         57  39  51  CALM    29.94S
RICHLAND AWOS   PTCLDY      62  41  46  S13     29.91F
#BENTON CITY    N/A         60  43  53  S5      29.82F
#CONNELL 5N     N/A         57  43  59  S6      29.90F
#CONNELL 5NW    N/A         56  43  62  SW8     29.85F
#ELTOPIA 6NW    N/A         56  42  59  SW5     28.88F
#KAHLOTUS       N/A         53  41  64  W7      29.91S
#KENNEWICK 3S   N/A         56  41  57  S9      29.93S
#PATERSON       N/A         55  40  57  W17G25  29.92R
#SAGEMOOR 2W    N/A         56  44  64  S8      29.78S
#TOUCHET 2S     N/A         56  45  66  W15     29.91F
#WEST PASCO     N/A         62  45  54  S5      29.90F
$$

WAZ029-251910-
FOOTHILLS OF THE BLUES...WASHINGTON

CITY            SKY/WX      TMP DP  RH  WIND    PRES   REMARKS
WALLA WALLA AP  CLOUDY      52  41  66  S12     29.95F
6HR MIN TEMP:   47; 6HR MAX TEMP:   52;

#CLYDE 6NW      N/A         51  41  68  SW13    29.91F
#DAYTON SCHOOL  N/A         49  35  58  E7      29.96S
#LOWDEN 2SE     N/A         55  44  66  W8      29.91F
#PLEASANT VIEW 1N/A         52  44  74  SE15    29.95F
#PRESCOTT       N/A         53  45  74  SW3     29.94F
#WHITMAN COLLEGEN/A         51  40  66  S6      30.01S
#WAITSBURG 5S   N/A         48  42  80  S9      30.05S
#WAITSBURG 8N   N/A         50  N/A N/A S20     29.96S
#WALLA WALLA 5E N/A         51  43  74  S9      N/A
#WHITMAN MISSIONN/A         55  44  66  SW8     29.96F
$$

WAZ030-251910-
BLUE MOUNTAINS...WASHINGTON

CITY            SKY/WX      TMP DP  RH  WIND    PRES   REMARKS
#DIXIE 5SE      N/A         41  37  86  S8      29.86R
$$

ORZ009-041-WAZ024-251910-
COLUMBIA RIVER GORGE

CITY            SKY/WX      TMP DP  RH  WIND    PRES   REMARKS
HOOD RIVER AP   CLOUDY      52  41  66  W7      29.98R
THE DALLES AP   MOCLDY      57  41  55  N9      29.97R
6HR MIN TEMP:   43; 6HR MAX TEMP:   57;

#ARLINGTON AIRPON/A         53  40  61  W10     29.96R
#CELILO DOT     N/A         57  34  42  W2      N/A
#LYLE           N/A         54  41  61  W8      29.99R
#MOSIER 1S      N/A         53  28  38  CALM    29.94R
#MURDOCK        N/A         54  40  59  W6      29.94R
#RUFUS DOT      N/A         55  38  53  W8      N/A
#SMITHVILLE     N/A         54  42  64  N9      29.92S

$$

ORZ510-251910-
NORTH CENTRAL OREGON

CITY            SKY/WX      TMP DP  RH  WIND    PRES   REMARKS
#ANTELOPE       N/A         46  33  60  W5      29.85S
#CHENOWITH 1W   N/A         45  37  73  NW12    N/A    WCI 39
#COW CYN RST AREN/A         44  31  60  SW10    N/A
#DUFUR          N/A         50  41  71  N5      29.93R
#DUFUR 9E       N/A         44  38  79  NW5     30.02R
#GRASS VALLEY 1SN/A         48  38  68  SW7     30.08R
#KENT DOT       N/A         47  25  42  N16     N/A    WCI 41
#MAUPIN SCHOOL  N/A         53  38  57  CALM    29.99R
#MORO SCHOOL    N/A         49  41  74  SW3     30.02R
#SHANIKO 5WSW   N/A         44  25  47  N15     N/A    WCI 37
#SHANIKO 4NW    N/A         43  32  65  S8      29.89F
#TYGH VALLEY 2NEN/A         51  37  59  N6      29.95R
#WAPANITIA AIRPON/A         49  36  61  W3      29.98R
#WASCO 5NE      N/A         50  39  66  W3      29.95S
$$

ORZ511-251910-
CENTRAL OREGON

CITY            SKY/WX      TMP DP  RH  WIND    PRES   REMARKS
BEND AIRPORT    CLOUDY      46  27  47  S13     29.93S WCI 40
MADRAS AIRPORT  CLOUDY      48  32  54  S12     29.96R WCI 43
PRINEVILLE AP   MOCLDY      46  30  53  S6      29.94R
REDMOND AIRPORT PTCLDY      48  25  40  S10     29.93R
6HR MIN TEMP:   22; 6HR MAX TEMP:   48;

#ASHWOOD SCHOOL N/A         51  31  46  S7      29.89S
#BEND 1SW       N/A         43  33  67  W3      N/A
#BEND-AWBREY    N/A         43  32  65  NE9     29.96R
#BEND-KIM LN    N/A         44  32  62  N2      29.91R
#CULVER         N/A         46  32  58  S7      29.88R
#CULVER 8W      N/A         50  31  48  CALM    29.94R
#LAKE BILLY CHINN/A         48  N/A N/A S3      30.03R
#MADRAS 4S      N/A         49   8  18  S9      30.02R
#POWELL BUTTE   N/A         46  26  45  CALM    29.89S
#PRINEVILLE     N/A         48  31  51  CALM    30.06S
#PRINEVILLE 3N  N/A         47  33  58  E2      29.97R
#WARM SPRINGS   N/A         51  38  61  CALM    29.92R

$$


ORZ509-251910-
EAST SLOPES OF OREGON CASCADES

CITY            SKY/WX      TMP DP  RH  WIND    PRES   REMARKS
SISTERS AWOS    N/A         45  30  55  CALM    29.91F
#BLUE BOX PASS  N/A         36  N/A N/A CALM    N/A
#CAMP SHERMAN   N/A         50  31  48  SW1     29.99F
#LA PINE 4NW    N/A         42  30  62  SW2     30.03F
#LAVA BUTTE DOT N/A         39  23  52  S2      N/A
#SISTERS 3N     N/A         45  31  58  CALM    29.94S
#TUMALO 3W      N/A         42  32  67  N6      29.84R
#WANOGA BUTTE D N/A         29  27  92  W12     N/A    WCI 19

$$

ORZ044-251910-
LOWER COLUMBIA BASIN...OREGON

CITY            SKY/WX      TMP DP  RH  WIND    PRES   REMARKS
HERMISTON       PTCLDY      56  41  57  W17     29.93F
6HR MIN TEMP:   45; 6HR MAX TEMP:   57;

#BOARDMAN SCHOOLN/A         56  40  55  SW10    29.93S
#BOARDMAN 8SW   N/A         54  42  64  SW12    29.93S
#ECHO 8SW       N/A         55  43  64  W7      29.95F
#I-84 EX 198 DOTN/A         53  39  59  E10     N/A
#IONE SCHOOL    N/A         53  36  52  SW7     29.94F
$$

ORZ507-251910-
NORTHERN FOOTHILLS OF THE BLUES

CITY            SKY/WX      TMP DP  RH  WIND    PRES   REMARKS
PENDLETON AIRPT CLOUDY      52  40  63  W10     29.94F
6HR MIN TEMP:   45; 6HR MAX TEMP:   52;

#ADAMS 3WNW     N/A         49  40  71  SW10    29.95F
#ATHENA         N/A         49  40  71  SW7     29.98F
#CAYUSE         N/A         49  39  68  SW1     29.96F
#HELIX SCHOOL   N/A         48  40  74  SW9     29.95F
#HELIX 3N       N/A         49  39  68  SW16    29.91F WCI 43
#HOLDMAN 5SE    N/A         52  41  66  SW13    29.93F
#HOLDMAN 6E     N/A         50  41  71  S8      29.75F
#M-F FERNDALE   N/A         52  40  63  CALM    29.93F
#M-F GROVE ELEM N/A         51  37  59  S3      29.93F
#M-FREEWATER 5SEN/A         49  40  71  CALM    29.96S
#PENDLETON DNTN N/A         53  37  54  W2      29.92F
#PDT AQUATIC CTRN/A         53  39  59  CALM    29.96S
#PDT SUNRIDGE   N/A         53  40  61  W2      29.96F
#PENDLETON 7NW  N/A         54  42  64  SW7     31.51S
#PILOT ROCK 1S  N/A         51  34  52  CALM    29.95F
#PILOT ROCK     N/A         54  41  61  CALM    29.96F
#TUTUILLA       N/A         51  41  68  CALM    29.96F
#UMAPINE 2E     N/A         53  43  69  SW1     29.93S
#WESTON SCHOOL  N/A         47  35  63  W9      29.94F

$$

ORZ508-251910-
SOUTHERN FOOTHILLS OF THE BLUES

CITY            SKY/WX      TMP DP  RH  WIND    PRES   REMARKS
LEXINGTON       PTCLDY      54  36  50  SW12    29.96F
#AJAX           N/A         48  31  51  S6      30.09R
#CONDON SCHOOL  N/A          0  -78  1  CALM    29.87F
#CONDON 5W      N/A         46  32  58  SW8     29.88S
#HEPPNER EOC    N/A         52  36  54  SW7     29.87F
#LEXINGTON 2SE  N/A         55  39  55  W6      29.90F
#MIKKALO        N/A         52  36  54  W7      30.03S
#OLEX 4N        N/A         51  39  63  SW10    29.92F
#RUGGS 5NE      N/A         51  33  50  SW6     30.07S
#RUGGS 2SW      N/A         49  33  54  W5      29.96F

$$

ORZ502-503-251910-
BLUE MOUNTAINS

CITY            SKY/WX      TMP DP  RH  WIND    PRES   REMARKS
MEACHAM         CLOUDY      41  33  73  CALM    29.92F
6HR MIN TEMP:   34; 6HR MAX TEMP:   41; 6HR PCP:  0.02;

#BATTLE MTN DOT N/A         37  34  89  SE5     N/A
#HARDMAN 10S    N/A         42  33  70  SE5     30.10R
#LADD CYN SMT   N/A         42  36  79  N8      N/A
#LADD CREEK ODOTN/A         43  -3  14  NE3     N/A
#LONG CREEK HS  N/A         44  37  76  CALM    N/A
#N POWDER DOT   N/A         47  37  68  NE5     N/A
#PIKES PEAK     N/A         37  36  96  N15     27.99S WCI 28
#TOLLGATE       N/A         32  31  96  CALM    29.77S
#TROY SCHOOL    N/A         53  40  61  E7      29.77R
#UKIAH          N/A         46  37  71  S3      29.87F
#WESTON 4E      N/A         40  37  89  S5      29.94F
$$

ORZ505-251910-
JOHN DAY BASIN

CITY            SKY/WX      TMP DP  RH  WIND    PRES   REMARKS
JOHN DAY        MOCLDY      47  33  58  CALM    29.94F
#ANTELOPE 9ESE  N/A         54  35  48  NE5     N/A
#DAYVILLE SCHOOLN/A         50  33  52  SE12    29.91F
#MITCHELL       N/A         49  36  61  SE6     30.08F
#MITCHELL 8NW   N/A         46  30  53  SW7     29.97F
#MONUMENT HS    N/A         53  34  48  N1      29.90F
#MT. VERNON 5SE N/A         44  33  65  SE1     29.89F
#SPRAY SCHOOL   N/A         53  N/A N/A CALM    N/A
$$

ORZ506-251910-
OCHOCO AND JOHN DAY HIGHLANDS

CITY            SKY/WX      TMP DP  RH  WIND    PRES   REMARKS
#HORSE RIDGE DO N/A         45  21  38  S8      N/A
#PAULINA ODOT   N/A         45  28  51  E6      N/A
#PINE MTN OBS   N/A         31  23  72  S16G26  N/A    WCI 20
#PRAIRIE CITY   N/A         44  34  68  CALM    30.11S
#SENECA 9NW     N/A         40  35  82  S1      29.96F
$$

ORZ049-251910-
GRANDE RONDE VALLEY

CITY            SKY/WX      TMP DP  RH  WIND    PRES   REMARKS
LA GRANDE       CLOUDY      48  37  65  CALM    29.92F
#COVE           N/A         45  40  82  CALM    29.97
#COVE SCHOOL    N/A         44  37  76  CALM    29.96S
#COVE 6NW       N/A         46  38  73  CALM    29.95F
#ELGIN 3N       N/A         46  35  65  W1      29.91S
#ELGIN 1E       N/A         45  36  70  CALM    N/A
#IMBLER SCHOOL  N/A         44  36  73  W1      29.90S
#ISLAND CITY 4N N/A         49  45  86  CALM    29.98S
#UNION 1S       N/A         46  38  73  N1      29.96S
$$

ORZ050-251910-
WALLOWA COUNTY

CITY            SKY/WX      TMP DP  RH  WIND    PRES   REMARKS
JOSEPH AIRPORT  CLOUDY      46  32  58  NE6     29.90F
#IMNAHA SCHOOL  N/A         54  37  52  SE2     29.90F
#IMNAHA 10S     N/A         50  38  63  CALM    29.90F
#JOSEPH 3N      N/A         46  32  58  NW1     29.94S
#JOSEPH 3W      N/A         N/A N/A N/A SW13    29.75S
#LOSTINE        N/A         46  38  73  N3      29.74S
#LOSTINE 3SE    N/A         45  37  73  N8      29.95S
#MT HOWARD 8000 N/A         30  27  88  CALM    29.85R
#PROMISE 1S     N/A         39  35  85  W8      30.06R
#WALLOWA SCHOOL N/A         48  38  68  NW2     29.88F



$$



USA.gov is the U.S. government's official web portal to all federal, state and local government web resources and services.